AB8KN-2 Weather Reports


time (UTC)temp
C
wind
direction
speed
KPH
gust
KPH
rain 1hr
cm
rain 24hr
cm
rain mn
cm
humidity
%
barometer
mb
20260508165016 18 200 3.2 11.3 0.00 0.00 0.00 47 1013.2
20260508164017 18 223 4.8 12.9 0.00 0.00 0.00 47 1013.9
20260508163017 17 215 1.6 8.0 0.00 0.00 0.00 51 1014.7
20260508162017 16 217 1.6 6.4 0.00 0.00 0.00 52 1013.9
20260508161017 16 232 3.2 6.4 0.00 0.00 0.00 52 1014.1
20260508160017 16 217 3.2 8.0 0.00 0.00 0.00 52 1014.4
20260508155038 15 208 3.2 8.0 0.00 0.00 0.00 52 1014.1
20260508154018 15 223 3.2 8.0 0.00 0.00 0.00 51 1014.2
20260508153018 15 209 4.8 8.0 0.00 0.00 0.00 50 1014.4
20260508152015 14 236 1.6 6.4 0.00 0.00 0.00 52 1014.4
20260508151056 13 214 1.6 9.7 0.00 0.00 0.00 55 1014.6
20260508150018 13 202 1.6 4.8 0.00 0.00 0.00 57 1014.6
20260508145036 13 187 1.6 4.8 0.00 0.00 0.00 57 1014.5
20260508144016 12 192 1.6 4.8 0.00 0.00 0.00 58 1014.4
20260508143016 12 196 1.6 6.4 0.00 0.00 0.00 58 1014.1
20260508142016 12 209 3.2 6.4 0.00 0.00 0.00 57 1014.1
20260508141016 12 216 3.2 8.0 0.00 0.00 0.00 56 1014.1
20260508140017 12 198 1.6 6.4 0.00 0.00 0.00 56 1014.1
20260508135057 12 187 4.8 12.9 0.00 0.00 0.00 56 1014.1
20260508134017 12 185 4.8 9.7 0.00 0.00 0.00 56 1014.1
20260508133017 12 185 3.2 11.3 0.00 0.00 0.00 56 1014.2
20260508132016 12 187 3.2 9.7 0.00 0.00 0.00 55 1014.2
20260508131017 13 185 3.2 6.4 0.00 0.00 0.00 55 1014.4
20260508130037 12 188 4.8 11.3 0.00 0.00 0.00 55 1014.6
20260508125038 11 196 4.8 8.0 0.00 0.00 0.00 58 1014.4
20260508124017 11 185 3.2 8.0 0.00 0.00 0.00 60 1014.3
20260508123018 10 194 1.6 9.7 0.00 0.00 0.00 61 1014.1
20260508122015 10 216 1.6 8.0 0.00 0.00 0.00 62 1014.2
20260508121018 10 204 1.6 6.4 0.00 0.00 0.00 62 1014.1
20260508120016 10 181 3.2 11.3 0.00 0.00 0.00 63 1014.1
20260508115016 9 200 1.6 6.4 0.00 0.00 0.00 65 1014.1
20260508114015 8 179 1.6 6.4 0.00 0.00 0.00 66 1014.0
20260508113016 8 192 1.6 6.4 0.00 0.00 0.00 67 1013.8
20260508112016 7 195 3.2 8.0 0.00 0.00 0.00 69 1013.8
20260508111016 7 197 1.6 6.4 0.00 0.00 0.00 70 1013.3
20260508110016 7 185 0.0 3.2 0.00 0.00 0.00 71 1013.3
20260508105017 7 189 1.6 6.4 0.00 0.00 0.00 71 1013.1
20260508104016 6 188 1.6 4.8 0.00 0.00 0.00 72 1012.9
20260508103016 6 205 1.6 4.8 0.00 0.00 0.00 74 1012.8
20260508102017 6 199 1.6 3.2 0.00 0.00 0.00 76 1012.7
20260508101017 5 183 0.0 1.6 0.00 0.00 0.00 77 1012.5
20260508100057 5 221 0.0 1.6 0.00 0.00 0.00 77 1012.4
20260508095017 5 202 0.0 3.2 0.00 0.00 0.00 78 1012.4
20260508094017 5 190 0.0 1.6 0.00 0.00 0.00 79 1012.4
20260508093017 6 190 0.0 1.6 0.00 0.00 0.00 78 1012.4
20260508092017 6 215 0.0 1.6 0.00 0.00 0.00 77 1012.5
20260508091018 6 199 0.0 1.6 0.00 0.00 0.00 78 1012.6
20260508090018 6 198 0.0 3.2 0.00 0.00 0.00 78 1012.5
20260508085018 6 191 0.0 1.6 0.00 0.00 0.00 78 1012.5
20260508084015 6 193 0.0 1.6 0.00 0.00 0.00 78 1012.5
20260508083036 6 188 0.0 3.2 0.00 0.00 0.00 79 1012.5
20260508082015 6 239 0.0 1.6 0.00 0.00 0.00 78 1012.5
20260508081016 6 209 0.0 3.2 0.00 0.00 0.00 77 1012.5
20260508080016 7 184 0.0 3.2 0.00 0.00 0.00 76 1012.4
20260508075016 7 184 0.0 1.6 0.00 0.00 0.00 74 1012.5
20260508074016 7 0.0 0.0 0.00 0.00 0.00 73 1012.5
20260508073037 8 182 0.0 3.2 0.00 0.00 0.00 70 1012.7
20260508072017 8 192 0.0 3.2 0.00 0.00 0.00 68 1012.7
20260508071017 9 187 0.0 1.6 0.00 0.00 0.00 67 1012.9
20260508070037 9 163 0.0 3.2 0.00 0.00 0.00 66 1013.4
20260508065017 10 186 0.0 1.6 0.00 0.00 0.00 65 1013.4
20260508064018 10 238 0.0 3.2 0.00 0.00 0.00 63 1013.6
20260508063038 10 191 0.0 1.6 0.00 0.00 0.00 62 1013.7
20260508062038 10 246 1.6 3.2 0.00 0.00 0.00 59 1013.9
20260508061017 10 205 0.0 1.6 0.00 0.00 0.00 60 1013.7
20260508060018 10 187 0.0 1.6 0.00 0.00 0.00 58 1013.6
20260508055056 10 199 1.6 4.8 0.00 0.00 0.00 59 1013.6
20260508054016 10 193 1.6 4.8 0.00 0.00 0.00 59 1013.5
20260508053015 10 175 1.6 3.2 0.00 0.00 0.00 59 1013.5
20260508052016 10 179 1.6 6.4 0.00 0.00 0.00 58 1013.5
20260508051016 10 173 0.0 3.2 0.00 0.00 0.00 59 1013.3
20260508050016 10 189 1.6 8.0 0.00 0.00 0.00 59 1013.4
20260508045016 9 183 1.6 3.2 0.00 0.00 0.00 61 1013.6
20260508044017 8 190 1.6 6.4 0.00 0.00 0.00 64 1013.6
20260508043016 8 177 0.0 1.6 0.00 0.00 0.00 66 1013.5
20260508042036 8 235 0.0 1.6 0.00 0.00 0.00 66 1013.6
20260508041017 8 183 0.0 1.6 0.00 0.00 0.00 67 1013.6
20260508040017 8 191 0.0 3.2 0.00 0.00 0.00 67 1013.4
20260508035037 8 196 0.0 1.6 0.00 0.00 0.00 67 1013.1
20260508034017 8 216 0.0 1.6 0.00 0.00 0.00 65 1013.1
20260508033017 8 225 0.0 3.2 0.00 0.00 0.00 64 1012.9
20260508032017 8 205 0.0 1.6 0.00 0.00 0.00 67 1013.4
20260508031018 7 218 0.0 1.6 0.00 0.00 0.00 68 1013.4
20260508030018 7 199 0.0 3.2 0.00 0.00 0.00 68 1013.2
20260508025038 7 217 0.0 1.6 0.00 0.00 0.00 68 1012.9
20260508024018 7 187 0.0 3.2 0.00 0.00 0.00 67 1012.8
20260508023018 8 194 0.0 3.2 0.00 0.00 0.00 65 1012.8
20260508022015 8 188 0.0 3.2 0.00 0.00 0.00 63 1012.7
20260508021015 8 206 0.0 1.6 0.00 0.00 0.00 62 1012.8
20260508020016 8 185 0.0 1.6 0.00 0.00 0.00 61 1012.9
20260508015016 9 174 0.0 1.6 0.00 0.00 0.00 59 1012.8
20260508014016 9 193 0.0 1.6 0.00 0.00 0.00 57 1012.7
20260508013037 10 197 0.0 1.6 0.00 0.00 0.00 56 1012.7
20260508012016 10 190 0.0 1.6 0.00 0.00 0.00 54 1012.5
20260508011037 10 190 0.0 1.6 0.00 0.00 0.00 51 1012.5
20260508010017 11 183 1.6 3.2 0.00 0.00 0.00 50 1012.5
20260508005017 11 185 0.0 3.2 0.00 0.00 0.00 48 1012.4
20260508004037 12 222 1.6 4.8 0.00 0.00 0.00 46 1012.5
20260508003017 12 190 1.6 4.8 0.00 0.00 0.00 45 1012.6
20260508002017 13 193 1.6 4.8 0.00 0.00 0.00 44 1012.4
20260508001018 13 214 1.6 4.8 0.00 0.00 0.00 42 1012.4
20260508000018 14 232 1.6 6.4 0.00 0.00 0.00 40 1012.5
20260507235015 15 228 3.2 9.7 0.00 0.00 0.00 39 1012.5
20260507234016 15 227 1.6 6.4 0.00 0.00 0.00 38 1012.6
20260507233016 15 227 3.2 6.4 0.00 0.00 0.00 38 1012.6
20260507232016 15 228 3.2 11.3 0.00 0.00 0.00 38 1012.7
20260507231016 15 227 3.2 6.4 0.00 0.00 0.00 37 1012.6
20260507230016 14 228 3.2 6.4 0.00 0.00 0.00 39 1012.7
20260507225017 15 228 3.2 9.7 0.00 0.00 0.00 38 1012.6
20260507224016 15 229 3.2 14.5 0.00 0.00 0.00 37 1013.0
20260507223017 15 228 4.8 9.7 0.00 0.00 0.00 38 1013.2
20260507222017 15 228 4.8 6.4 0.00 0.00 0.00 38 1012.8
20260507221017 16 230 6.4 16.1 0.00 0.00 0.00 36 1013.2
20260507220017 15 252 6.4 14.5 0.00 0.00 0.00 36 1013.4
20260507215037 15 251 3.2 11.3 0.00 0.00 0.00 37 1013.3
20260507214017 15 256 3.2 11.3 0.00 0.00 0.00 38 1012.4
20260507213017 15 266 4.8 11.3 0.00 0.00 0.00 38 1013.2
20260507212018 15 233 4.8 14.5 0.00 0.00 0.00 38 1012.2
20260507211018 15 228 4.8 11.3 0.00 0.00 0.00 39 1013.2
20260507210038 14 229 4.8 11.3 0.00 0.00 0.00 38 1013.1
20260507205018 14 234 4.8 9.7 0.00 0.00 0.00 40 1012.7
20260507204015 15 261 4.8 14.5 0.00 0.00 0.00 38 1012.9
20260507203015 16 269 4.8 16.1 0.00 0.00 0.00 39 1012.4
20260507202016 15 230 6.4 14.5 0.00 0.00 0.00 39 1013.1
20260507201036 15 234 6.4 11.3 0.00 0.00 0.00 40 1013.0
20260507200016 16 244 4.8 14.5 0.00 0.00 0.00 38 1013.1
20260507195016 15 237 3.2 11.3 0.00 0.00 0.00 39 1013.0
20260507194016 15 253 6.4 14.5 0.00 0.00 0.00 39 1013.5
20260507193057 15 262 4.8 14.5 0.00 0.00 0.00 38 1013.5
20260507192017 15 259 4.8 11.3 0.00 0.00 0.00 38 1013.3
20260507191017 15 269 6.4 20.9 0.00 0.00 0.00 38 1013.4
20260507190017 15 223 4.8 14.5 0.00 0.00 0.00 41 1013.7
20260507185017 15 264 4.8 17.7 0.00 0.00 0.00 41 1013.6
20260507184017 15 256 4.8 19.3 0.00 0.00 0.00 42 1013.8
20260507183017 15 260 4.8 12.9 0.00 0.00 0.00 42 1013.8
20260507182038 15 250 4.8 14.5 0.00 0.00 0.00 44 1013.9
20260507181018 15 265 4.8 16.1 0.00 0.00 0.00 44 1013.8
20260507180018 14 265 4.8 11.3 0.00 0.00 0.00 44 1013.9
20260507175016 14 260 6.4 17.7 0.00 0.00 0.00 45 1013.9
20260507174035 14 264 4.8 16.1 0.00 0.00 0.00 45 1014.1
20260507173015 14 252 4.8 12.9 0.00 0.00 0.00 45 1014.2
20260507172016 14 265 4.8 19.3 0.00 0.00 0.00 43 1014.3
20260507171016 14 260 4.8 12.9 0.00 0.00 0.00 45 1014.4
20260507170016 13 251 4.8 16.1 0.00 0.00 0.00 45 1014.6